Date,TemperatureHighF,TemperatureAvgF,TemperatureLowF,DewpointHighF,DewpointAvgF,DewpointLowF,HumidityHigh,HumidityAvg,HumidityLow,PressureMaxIn,PressureMinIn,WindSpeedMaxMPH,WindSpeedAvgMPH,GustSpeedMaxMPH,PrecipitationSumIn
2013-1-1,18.4,16.6,14.4,14.6,10.1,6.4,85,76,66,30.20,30.05,14,10,0,0.00
2013-1-2,25.3,21.5,18.8,19.9,17.1,14.8,88,83,76,30.13,30.03,14,7,0,0.00
2013-1-3,26.9,23.4,20.8,21.5,18.7,15.3,88,82,77,30.08,29.93,22,10,0,0.00
2013-1-4,32.4,25.5,19.9,26.6,20.4,15.3,88,81,76,30.13,29.89,23,11,0,0.00
2013-1-5,34.8,24.7,11.1,30.9,21.6,9.5,95,88,77,30.19,29.82,14,4,0,0.00
2013-1-6,30.5,24.2,9.9,28.3,20.0,8.0,94,84,73,30.25,29.82,19,7,0,0.00
2013-1-7,35.3,29.3,12.2,28.3,22.2,10.1,93,75,60,30.24,29.88,19,12,0,0.00
2013-1-8,37.6,25.3,26.2,35.5,-0.1,-99.9,93,67,82,30.11,29.82,12,-225,0,0.00
2013-1-9,38.4,23.3,30.7,30.6,-14.6,-99.9,87,51,66,30.43,29.77,18,-328,0,0.00
2013-1-10,39.3,32.5,20.6,35.2,29.0,19.1,96,87,75,30.50,29.98,6,2,0,0.07
2013-1-11,41.4,38.8,35.4,41.4,38.4,34.2,100,98,96,29.98,29.57,9,4,0,0.30
2013-1-12,44.6,36.3,26.2,42.1,32.7,20.6,100,87,76,29.96,29.52,19,10,0,0.00
2013-1-13,26.4,23.9,18.0,22.0,19.1,14.0,89,82,75,30.09,29.89,12,5,0,0.00
2013-1-14,22.0,16.6,12.7,14.6,10.9,6.8,88,78,68,30.40,30.11,15,10,0,0.00
2013-1-15,27.6,20.9,13.0,19.2,13.7,6.4,82,73,64,30.42,29.99,15,8,0,0.00
2013-1-16,30.4,26.4,20.1,26.3,19.9,12.6,91,76,62,30.06,29.64,23,13,0,0.00
2013-1-17,20.1,12.8,9.5,12.3,3.3,-1.0,77,66,55,30.39,30.06,14,11,0,0.00
2013-1-18,29.8,19.3,10.8,26.4,14.7,1.4,94,83,62,30.40,29.76,11,3,0,0.00
2013-1-19,37.1,27.1,14.0,33.6,24.1,4.7,95,88,66,29.82,29.47,24,7,0,0.06
2013-1-20,14.0,10.1,5.2,4.1,1.4,-1.6,76,68,60,30.21,29.74,25,14,0,0.00
2013-1-21,5.2,-0.5,-6.9,-1.8,-8.8,-15.8,77,67,54,30.23,30.07,16,14,0,0.00
2013-1-22,2.6,-1.9,-7.7,-7.3,-9.9,-13.5,78,68,59,30.33,30.22,13,9,0,0.00
2013-1-23,10.6,4.3,-3.0,5.5,-2.0,-9.1,84,75,66,30.42,30.09,19,11,0,0.00
2013-1-24,12.2,7.6,3.0,7.2,2.1,-1.0,84,78,71,30.70,30.41,14,5,0,0.00
2013-1-25,17.2,14.2,10.8,15.3,12.1,7.2,93,91,85,30.41,29.95,8,3,0,0.00
2013-1-26,23.8,16.4,10.8,17.4,12.9,8.2,99,86,74,30.40,30.13,10,3,0,0.02
2013-1-27,25.0,5.5,20.5,23.3,-70.3,-99.9,94,22,77,30.36,29.91,9,-748,0,0.00
2013-1-28,-200.0,0.0,200.0,-99.9,-99.9,-99.9,0,0,100,29.91,29.78,0,-999,0,0.00
2013-1-30,26.6,7.1,20.4,25.9,-63.9,-99.9,97,28,96,29.49,29.26,21,-702,0,0.01
2013-1-31,14.3,5.0,11.6,7.5,-59.9,-99.9,80,28,71,29.99,29.41,16,-619,0,0.00
2013-2-1,8.5,2.1,2.2,1.6,-60.6,-99.9,81,30,71,30.21,29.99,12,-599,0,0.00
2013-2-2,13.9,4.5,2.2,5.2,-48.8,-99.9,83,37,62,30.14,30.03,10,-496,0,0.00
2013-2-4,4.4,0.7,4.4,-1.2,-83.4,-99.9,77,13,77,29.99,29.97,0,-832,0,0.00
2013-2-5,22.0,8.5,20.4,15.8,-54.1,-99.9,78,30,73,30.09,29.79,9,-597,0,0.00
2013-2-6,19.7,6.8,11.6,13.9,-55.7,-99.9,91,31,73,30.25,30.09,9,-602,0,0.00
2013-2-7,-200.0,0.0,200.0,-99.9,-99.9,-99.9,0,0,100,30.20,30.05,0,-999,0,0.00
2013-2-8,22.5,8.3,13.1,18.3,-49.8,-99.9,91,36,77,30.43,30.12,2,-562,0,0.00
2013-2-9,23.8,7.5,-1.0,20.7,-47.8,-99.9,91,41,86,30.42,30.12,4,-540,0,0.00
2013-2-10,33.9,12.2,31.0,33.1,-51.2,-99.9,97,34,86,30.15,29.36,12,-622,0,0.25
2013-2-11,34.7,10.9,30.6,33.8,-56.5,-99.9,98,30,83,29.86,29.27,16,-662,0,0.02
2013-2-12,24.8,9.1,22.9,20.8,-54.3,-99.9,89,32,79,29.99,29.81,12,-614,0,0.00
2013-2-13,30.7,11.3,24.6,28.2,-50.0,-99.9,93,36,88,29.81,29.62,9,-602,0,0.00
2013-2-14,30.2,9.2,22.2,29.7,-57.7,-99.9,98,32,87,29.97,29.59,17,-662,0,0.01
2013-2-15,19.7,8.0,15.4,15.7,-51.0,-99.9,91,33,70,30.19,29.97,9,-560,0,0.00
2013-2-16,17.9,6.8,10.9,12.8,-50.3,-99.9,86,35,68,30.20,30.05,12,-542,0,0.00
2013-2-17,16.1,5.2,2.4,6.5,-55.2,-99.9,89,31,60,30.24,30.03,6,-573,0,0.00
2013-2-18,36.7,14.1,30.4,34.9,-45.7,-99.9,93,36,80,30.03,29.34,10,-580,0,0.00
2013-2-19,18.8,6.6,13.1,17.3,-54.9,-99.9,94,35,80,30.03,29.29,17,-597,0,0.00
2013-2-20,18.8,7.4,12.3,14.2,-51.0,-99.9,82,35,79,30.41,30.04,20,-554,0,0.00
2013-2-21,22.9,9.1,19.7,21.1,-50.0,-99.9,93,38,90,30.46,30.28,14,-580,0,0.00
2013-2-22,28.4,9.4,25.6,27.7,-56.8,-99.9,97,33,96,30.25,29.78,8,-657,0,0.00
2013-2-23,27.1,10.6,17.8,24.7,-46.5,-99.9,95,40,90,29.85,29.73,10,-559,0,0.00
2013-2-24,31.5,8.9,26.3,28.6,-61.0,-99.9,94,28,88,30.14,29.86,6,-691,0,0.09
2013-2-25,33.2,13.4,24.5,28.7,-44.6,-99.9,96,37,78,30.18,30.10,7,-561,0,0.09
2013-2-26,33.7,13.2,30.6,29.2,-48.1,-99.9,89,33,75,30.15,29.80,15,-588,0,0.02
2013-2-27,-200.0,0.0,200.0,-99.9,-99.9,-99.9,0,0,100,29.79,29.68,0,-999,0,0.00
2013-2-28,-200.0,0.0,200.0,-99.9,-99.9,-99.9,0,0,100,30.12,29.76,0,-999,0,0.00
2013-3-1,24.6,7.2,20.1,19.4,-63.3,-99.9,88,25,73,30.32,30.12,16,-683,0,0.00
2013-3-2,24.8,10.3,20.4,19.0,-48.5,-99.9,86,34,72,30.26,30.19,14,-557,0,0.00
2013-3-3,25.9,9.5,22.0,18.1,-54.5,-99.9,75,28,72,30.16,30.10,6,-609,0,0.00
2013-3-4,26.1,11.0,6.2,20.3,-39.5,-99.9,89,43,75,30.23,30.14,7,-481,0,0.02
2013-3-5,27.9,17.9,25.5,24.4,-18.1,-99.9,88,57,82,30.13,30.05,9,-328,0,0.00
2013-3-6,31.0,12.0,28.6,29.1,-48.6,-99.9,94,37,91,30.25,30.13,12,-596,0,0.01
2013-3-7,29.6,15.6,20.0,21.1,-30.8,-99.9,82,42,63,30.48,30.41,5,-416,0,0.00
2013-3-8,32.3,13.9,26.1,28.1,-42.2,-99.9,90,38,79,30.51,30.33,7,-539,0,0.00
2013-3-9,-200.0,0.0,200.0,-99.9,-99.9,-99.9,0,0,100,30.32,29.84,0,-999,0,0.00
2013-3-10,-200.0,0.0,200.0,-99.9,-99.9,-99.9,0,0,100,29.88,29.73,0,-999,0,0.00
2013-3-11,-200.0,0.0,200.0,-99.9,-99.9,-99.9,0,0,100,29.70,29.43,0,-999,0,0.00
2013-3-12,26.6,11.4,21.9,23.7,-44.6,-99.9,94,39,76,29.93,29.58,13,-538,0,0.00
2013-3-13,29.9,12.1,19.9,18.6,-45.5,-99.9,81,32,53,30.27,29.93,18,-526,0,0.00
2013-3-14,32.4,13.3,23.5,21.2,-46.7,-99.9,81,29,54,30.27,29.96,11,-550,0,0.00
2013-3-15,28.6,10.5,22.9,22.5,-52.6,-99.9,78,30,71,30.02,29.89,14,-599,0,0.00
2013-3-16,24.9,9.4,19.1,17.2,-52.3,-99.9,85,29,62,30.12,29.94,9,-581,0,0.00
2013-3-17,22.1,9.6,13.8,15.7,-44.0,-99.9,79,36,67,30.36,30.13,9,-498,0,0.00
2013-3-18,31.5,11.9,27.2,30.0,-50.1,-99.9,97,34,74,30.15,29.47,13,-602,0,0.00
2013-3-19,29.7,9.5,24.0,20.4,-57.9,-99.9,80,25,67,29.89,29.47,16,-640,0,0.00
2013-3-20,23.0,9.1,16.4,18.7,-50.1,-99.9,90,33,64,29.98,29.87,13,-558,0,0.00
2013-3-21,26.9,10.0,23.5,19.0,-53.7,-99.9,81,29,68,30.03,29.90,14,-604,0,0.00
2013-3-22,32.0,8.9,29.2,26.5,-63.4,-99.9,84,23,75,30.06,29.96,8,-706,0,0.00
2013-3-23,33.3,8.7,31.1,26.0,-66.1,-99.9,81,20,70,30.14,30.06,5,-728,0,0.00
2013-3-24,32.8,9.8,28.0,26.8,-61.1,-99.9,82,23,68,30.14,29.87,15,-684,0,0.00
2013-3-25,34.2,12.9,30.3,28.1,-49.7,-99.9,84,31,73,30.09,29.87,15,-598,0,0.00
2013-3-26,37.5,10.6,35.0,32.0,-62.3,-99.9,85,22,69,30.19,30.08,12,-705,0,0.00
2013-3-27,40.9,16.6,30.5,28.7,-44.5,-99.9,79,28,53,30.27,30.17,10,-539,0,0.00
2013-3-28,41.2,17.4,31.4,29.0,-42.1,-99.9,79,29,55,30.31,30.24,5,-540,0,0.00
2013-3-29,42.3,17.8,32.6,27.3,-42.4,-99.9,80,27,48,30.31,30.19,6,-540,0,0.00
2013-3-30,38.2,15.1,35.0,33.4,-44.7,-99.9,93,36,75,30.20,29.76,8,-580,0,0.17
2013-3-31,39.3,15.7,30.0,35.8,-42.8,-99.9,99,36,63,29.85,29.57,19,-557,0,0.00
2013-4-1,30.3,12.5,22.5,21.6,-45.3,-99.9,86,31,53,30.13,29.85,13,-527,0,0.00
2013-4-2,34.5,13.7,27.1,18.7,-49.2,-99.9,66,24,46,30.30,30.10,10,-562,0,0.00
2013-4-3,33.7,13.4,28.9,22.2,-48.8,-99.9,72,26,53,30.48,30.20,7,-569,0,0.00
2013-4-4,44.5,13.3,37.9,36.2,-57.1,-99.9,79,24,67,30.20,29.90,14,-678,0,0.00
2013-4-5,36.3,15.0,29.3,24.7,-44.1,-99.9,78,30,46,30.28,30.04,6,-542,0,0.00
2013-4-6,-200.0,0.0,200.0,-99.9,-99.9,-99.9,0,0,100,30.21,29.42,0,-999,0,0.00
2013-4-7,40.6,18.0,34.1,34.0,-36.9,-99.9,92,38,72,30.04,29.42,10,-520,0,0.00
2013-4-8,35.6,13.2,34.3,34.5,-49.8,-99.9,97,35,89,30.05,29.82,8,-622,0,0.13
2013-4-9,-200.0,0.0,200.0,-99.9,-99.9,-99.9,0,0,100,30.14,30.04,0,-999,0,0.00
2013-4-10,36.8,5.0,35.5,32.1,-81.8,-99.9,85,11,81,30.17,30.06,8,-860,0,0.02
2013-4-11,-200.0,0.0,200.0,-99.9,-99.9,-99.9,0,0,100,29.98,29.75,0,-999,0,0.00
2013-4-12,-200.0,0.0,200.0,-99.9,-99.9,-99.9,0,0,100,29.74,29.59,0,-999,0,0.00
2013-4-13,32.7,14.7,29.4,32.2,-41.9,-99.9,99,43,93,29.96,29.67,11,-531,0,0.07
2013-4-14,34.7,15.2,30.7,33.2,-40.1,-99.9,98,41,82,30.07,29.81,7,-539,0,0.03
2013-4-15,48.3,19.8,38.1,43.6,-36.6,-99.9,99,39,63,29.88,29.65,12,-542,0,0.00
2013-4-16,48.2,18.7,40.2,33.7,-44.7,-99.9,75,26,55,30.36,29.89,12,-581,0,0.00
2013-4-17,39.1,14.2,35.9,34.6,-49.7,-99.9,89,32,82,30.41,30.04,9,-622,0,0.00
2013-4-18,-200.0,0.0,200.0,-99.9,-99.9,-99.9,0,0,100,30.03,29.22,0,-999,0,0.00
2013-4-19,36.5,9.4,27.3,30.6,-63.9,-99.9,79,20,66,29.75,29.11,18,-703,0,0.00
2013-4-20,35.8,13.6,28.1,21.7,-50.6,-99.9,72,23,43,30.46,29.76,11,-582,0,0.00
2013-4-21,38.9,15.5,35.1,32.7,-46.1,-99.9,87,30,66,30.56,30.28,10,-580,0,0.00
2013-4-22,-200.0,0.0,200.0,-99.9,-99.9,-99.9,0,0,100,30.28,30.07,0,-999,0,0.00
2013-4-23,-200.0,0.0,200.0,-99.9,-99.9,-99.9,0,0,100,30.07,29.82,0,-999,0,0.00
2013-4-24,46.4,16.4,37.1,33.6,-49.0,-99.9,86,24,43,29.96,29.91,9,-602,0,0.00
2013-4-25,48.0,19.2,38.9,34.4,-41.8,-99.9,83,29,52,30.25,29.84,12,-560,0,0.00
2013-4-26,47.5,18.0,41.9,39.2,-44.2,-99.9,87,31,70,30.26,30.09,15,-590,0,0.00
2013-4-27,53.9,20.1,48.1,47.3,-42.6,-99.9,84,32,75,30.18,30.02,13,-600,0,0.00
2013-4-28,66.2,29.2,49.0,45.6,-28.9,-99.9,67,28,42,30.02,29.80,10,-498,0,0.00
2013-4-29,-200.0,0.0,200.0,-99.9,-99.9,-99.9,0,0,100,29.83,29.76,0,-999,0,0.00
2013-4-30,56.8,26.1,52.8,53.6,-27.6,-99.9,91,42,85,29.81,29.70,14,-515,0,0.08
2013-5-1,65.5,29.4,43.7,52.7,-23.7,-99.9,88,36,58,30.31,29.82,17,-473,0,0.00
2013-5-2,47.2,15.6,35.3,40.4,-48.6,-99.9,94,31,74,30.34,30.24,20,-618,0,0.11
2013-5-3,48.1,17.3,40.4,42.5,-44.6,-99.9,91,34,81,30.27,30.11,16,-598,0,0.00
2013-5-4,66.1,24.9,53.8,50.4,-39.8,-99.9,71,25,53,30.12,30.04,10,-590,0,0.00
2013-5-5,66.4,24.4,52.1,46.1,-42.9,-99.9,74,21,45,30.13,30.03,4,-603,0,0.00
2013-5-6,67.0,28.6,46.8,46.9,-31.5,-99.9,84,27,37,30.13,29.98,7,-519,0,0.00
2013-5-7,72.5,30.9,52.2,47.6,-31.4,-99.9,72,23,32,30.08,29.99,4,-520,0,0.00
2013-5-8,72.2,32.8,57.8,44.3,-32.3,-99.9,46,18,29,30.03,29.94,4,-519,0,0.00
2013-5-9,58.4,18.2,40.0,47.8,-46.5,-99.9,89,30,66,30.09,29.93,18,-619,0,0.00
2013-5-10,45.8,11.9,39.3,39.5,-62.5,-99.9,85,22,75,30.07,29.93,11,-728,0,0.00
2013-5-11,45.5,12.7,40.9,39.5,-60.8,-99.9,89,20,60,29.93,29.73,13,-704,0,0.00
2013-5-12,40.9,11.5,36.9,29.5,-62.7,-99.9,69,18,58,30.10,29.85,13,-705,0,0.00
2013-5-13,46.8,12.7,40.2,32.4,-61.1,-99.9,68,18,54,30.16,29.97,7,-700,0,0.00
2013-5-14,54.9,15.8,46.3,43.6,-55.6,-99.9,82,23,62,29.95,29.50,5,-686,0,0.00
2013-5-15,70.8,20.0,63.3,49.6,-56.9,-99.9,61,14,40,29.71,29.44,6,-706,0,0.00
2013-5-16,54.6,21.2,51.1,41.1,-43.6,-99.9,67,25,59,30.08,30.00,2,-599,0,0.00
2013-5-17,58.8,19.1,47.7,46.5,-48.6,-99.9,84,25,60,30.18,30.08,6,-644,0,0.00
2013-5-18,59.0,13.0,52.9,48.8,-66.1,-99.9,77,16,67,30.16,29.96,7,-769,0,0.00
2013-5-19,71.3,25.1,54.7,63.3,-38.0,-99.9,89,31,72,29.97,29.80,6,-602,0,0.00
2013-5-20,68.1,26.1,54.6,63.4,-31.5,-99.9,99,39,80,29.80,29.66,8,-560,0,0.28
2013-5-21,59.8,21.0,50.1,57.8,-41.0,-99.9,99,37,91,29.70,29.62,5,-616,0,0.08
2013-5-22,-200.0,0.0,200.0,-99.9,-99.9,-99.9,0,0,100,29.81,29.67,0,-999,0,0.00
2013-5-23,45.0,18.7,42.7,37.9,-41.9,-99.9,79,32,70,30.33,29.82,20,-567,0,0.00
2013-5-24,53.6,19.7,42.7,42.6,-44.9,-99.9,83,27,56,30.43,30.32,2,-603,0,0.00
2013-5-25,57.9,23.4,48.3,39.8,-42.9,-99.9,66,20,41,30.45,30.32,1,-583,0,0.00
2013-5-26,61.9,26.7,48.3,44.5,-35.7,-99.9,78,24,38,30.37,30.21,3,-540,0,0.00
2013-5-27,62.6,27.5,54.6,46.2,-34.0,-99.9,62,25,50,30.23,29.94,6,-540,0,0.00
2013-5-28,-200.0,0.0,200.0,-99.9,-99.9,-99.9,0,0,100,29.93,29.73,0,-999,0,0.00
2013-5-29,62.3,29.8,52.7,59.0,-18.8,-99.9,100,50,86,29.89,29.75,7,-477,0,0.00
2013-5-30,61.1,34.1,54.5,59.1,-8.9,-99.9,99,54,85,29.87,29.77,8,-413,0,0.00
2013-5-31,58.3,25.6,52.1,55.7,-28.5,-99.9,99,44,91,29.78,29.69,9,-533,0,0.00
2013-6-1,66.7,22.4,51.1,63.2,-40.8,-99.9,99,35,86,29.70,29.59,8,-623,0,0.19
2013-6-2,53.7,18.7,43.0,45.3,-46.3,-99.9,86,29,68,30.04,29.66,13,-622,0,0.00
2013-6-3,59.7,22.3,47.2,50.7,-42.1,-99.9,90,28,57,30.14,30.00,2,-603,0,0.00
2013-6-4,56.8,25.0,52.2,42.0,-37.1,-99.9,63,24,43,30.23,30.14,4,-541,0,0.00
2013-6-5,-200.0,0.0,200.0,-99.9,-99.9,-99.9,0,0,100,30.19,30.16,0,-999,0,0.00
2013-6-7,69.5,41.7,54.7,52.9,-8.4,-99.9,77,31,35,29.93,29.89,6,-373,0,0.00
2013-6-8,70.4,23.1,56.9,53.4,-46.8,-99.9,71,21,46,30.04,29.90,3,-645,0,0.00
2013-6-9,69.2,30.4,58.9,56.8,-25.9,-99.9,86,35,62,30.07,29.91,7,-518,0,0.00
2013-6-10,68.6,26.0,57.4,61.5,-35.2,-99.9,91,34,78,29.91,29.78,6,-590,0,0.00
2013-6-11,69.4,30.5,56.4,63.2,-23.5,-99.9,94,41,79,29.87,29.76,6,-519,0,0.00
2013-6-12,71.7,33.2,58.0,63.6,-19.9,-99.9,100,40,62,29.90,29.80,2,-499,0,0.00
2013-6-17,60.2,46.2,55.1,55.9,22.3,-99.9,94,68,79,30.05,29.93,10,-204,0,0.00
2013-6-18,66.3,26.3,54.0,51.6,-39.6,-99.9,77,22,39,30.13,30.04,9,-581,0,0.00
2013-6-19,65.4,29.0,59.3,49.2,-32.5,-99.9,65,26,49,30.16,30.06,7,-539,0,0.00
2013-6-20,68.3,19.4,63.8,56.2,-54.8,-99.9,74,19,59,30.12,30.06,6,-706,0,0.00
2013-6-21,65.8,19.8,60.3,62.1,-48.9,-99.9,94,29,88,30.12,29.86,7,-679,0,0.00
2013-6-22,68.6,22.9,58.3,64.0,-41.8,-99.9,97,33,84,30.07,29.93,7,-637,0,0.00
2013-6-23,69.4,30.8,59.3,65.7,-22.5,-99.9,100,44,87,29.97,29.80,6,-519,0,0.00
2013-6-24,77.3,24.9,63.7,70.6,-41.1,-99.9,92,31,80,29.91,29.80,4,-644,0,0.00
2013-6-25,77.9,28.1,65.9,70.9,-35.0,-99.9,94,33,78,29.83,29.76,7,-610,0,0.00
2013-6-26,74.9,28.0,65.2,69.4,-34.2,-99.9,91,34,80,29.80,29.68,6,-602,0,0.00
2013-6-27,73.0,17.4,64.8,67.9,-58.4,-99.9,96,22,84,29.76,29.62,12,-749,0,0.00
2013-6-28,-200.0,0.0,200.0,-99.9,-99.9,-99.9,0,0,100,29.66,29.59,0,-999,0,0.00
2013-6-29,68.8,23.6,61.6,60.9,-43.7,-99.9,82,27,70,29.85,29.65,12,-642,0,0.00
2013-6-30,74.4,34.0,64.5,56.6,-26.7,-99.9,69,26,44,30.05,29.85,8,-518,0,0.00
2013-7-1,72.1,31.3,62.0,59.4,-28.2,-99.9,76,31,56,30.15,30.05,11,-538,0,0.00
2013-7-2,71.6,33.4,64.2,58.5,-26.3,-99.9,78,27,40,30.16,30.07,6,-508,0,0.00
2013-7-3,74.4,37.5,62.7,62.2,-16.4,-99.9,97,33,47,30.10,30.00,6,-461,0,0.00
2013-7-4,69.9,29.1,64.5,65.9,-29.9,-99.9,90,37,79,30.04,29.96,9,-568,0,0.00
2013-7-5,74.1,29.9,68.4,67.2,-31.1,-99.9,83,33,73,30.02,29.93,9,-578,0,0.00
2013-7-6,76.0,28.2,67.8,67.9,-36.1,-99.9,86,30,72,29.99,29.90,7,-613,0,0.00
2013-7-7,78.2,24.6,68.6,71.0,-43.7,-99.9,92,28,78,29.93,29.85,6,-665,0,0.00
2013-7-8,73.2,19.2,67.8,69.8,-54.7,-99.9,96,24,87,29.98,29.85,6,-730,0,0.02
2013-7-9,69.5,22.3,65.2,67.3,-44.7,-99.9,99,32,92,29.98,29.69,6,-665,0,0.00
2013-7-10,71.2,33.2,64.7,61.5,-22.3,-99.9,86,37,69,29.85,29.69,15,-511,0,0.00
2013-7-18,85.8,54.7,77.0,76.5,17.0,-99.9,93,54,72,29.86,29.72,10,-329,0,0.02
2013-7-19,83.9,36.4,73.5,76.1,-21.5,-99.9,89,35,63,29.74,29.58,12,-539,0,0.00
2013-7-20,69.7,24.5,61.0,53.2,-44.8,-99.9,67,21,52,30.02,29.72,9,-634,0,0.00
2013-7-21,65.5,27.9,61.8,57.2,-31.7,-99.9,83,33,68,30.05,29.90,5,-561,0,0.00
2013-7-22,74.0,30.3,69.9,69.6,-28.8,-99.9,96,38,78,29.91,29.57,9,-575,0,0.00
2013-7-23,64.2,24.9,59.0,52.6,-40.0,-99.9,76,26,54,29.98,29.63,21,-593,0,0.00
2013-7-24,71.0,31.4,62.0,55.8,-28.4,-99.9,80,28,46,30.06,29.98,6,-530,0,0.00
2013-7-25,70.9,28.9,66.7,63.0,-32.6,-99.9,80,32,73,30.02,29.90,8,-580,0,0.00
2013-7-26,67.2,11.2,65.0,65.3,-71.9,-99.9,98,16,92,29.90,29.79,6,-829,0,0.13
2013-7-27,61.6,22.6,55.6,52.1,-42.2,-99.9,83,28,67,29.87,29.78,3,-616,0,0.00
2013-7-28,-200.0,0.0,200.0,-99.9,-99.9,-99.9,0,0,100,29.91,29.76,0,-999,0,0.00
2013-7-29,69.7,28.3,56.7,60.5,-30.5,-99.9,92,35,71,30.14,29.92,9,-558,0,0.00
2013-7-30,68.9,25.2,64.5,63.3,-40.1,-99.9,90,29,68,30.18,30.06,8,-623,0,0.00
2013-7-31,69.4,30.4,65.9,65.8,-26.0,-99.9,94,41,86,30.06,29.83,9,-548,0,0.01
2013-8-1,73.5,21.8,68.4,62.2,-50.5,-99.9,77,22,60,29.89,29.82,8,-690,0,0.00
2013-8-2,74.7,34.7,65.7,62.9,-21.2,-99.9,84,35,59,29.91,29.76,9,-509,0,0.00
2013-8-3,70.7,29.7,64.0,60.8,-30.4,-99.9,81,32,67,30.11,29.91,6,-560,0,0.00
2013-8-4,68.1,26.3,61.1,54.1,-39.6,-99.9,75,24,53,30.21,30.08,0,-604,0,0.00
2013-8-5,65.3,26.3,63.0,61.9,-34.1,-99.9,95,36,80,30.08,29.82,8,-588,0,0.01
2013-8-6,70.5,24.3,66.2,67.2,-41.1,-99.9,97,33,88,29.83,29.70,8,-644,0,0.00
2013-8-7,70.9,28.2,64.5,64.8,-32.1,-99.9,92,35,74,29.98,29.60,10,-582,0,0.00
2013-8-8,71.8,28.3,63.9,62.2,-34.5,-99.9,85,29,57,30.03,29.95,2,-586,0,0.00
2013-8-9,72.9,33.3,64.6,63.1,-23.7,-99.9,87,34,55,30.02,29.88,12,-518,0,0.00
2013-8-10,70.7,31.2,64.4,62.4,-26.7,-99.9,91,35,62,30.11,30.03,4,-540,0,0.00
2013-8-11,72.8,35.0,65.7,63.0,-19.3,-99.9,89,37,63,30.08,29.98,7,-498,0,0.00
2013-8-12,73.2,30.1,57.1,66.0,-26.0,-99.9,95,40,71,29.99,29.83,17,-537,0,0.11
2013-8-13,63.2,25.3,57.1,55.3,-37.5,-99.9,84,28,58,30.14,29.99,15,-578,0,0.00
2013-8-14,65.3,21.7,60.4,53.4,-47.3,-99.9,77,24,63,30.19,30.13,6,-653,0,0.00
2013-8-17,75.2,53.0,69.6,66.5,16.8,-99.9,77,49,57,30.19,30.11,8,-277,0,0.00
2013-8-18,75.0,31.5,68.3,65.7,-28.2,-99.9,80,33,71,30.18,30.02,6,-560,0,0.00
2013-8-19,77.1,33.7,68.6,67.5,-23.8,-99.9,89,36,70,30.03,29.91,8,-539,0,0.00
2013-8-20,77.1,27.8,69.9,69.9,-36.7,-99.9,90,31,74,30.01,29.92,8,-622,0,0.00
2013-8-21,78.3,24.9,71.2,70.9,-43.5,-99.9,89,28,78,29.95,29.80,11,-664,0,0.00
2013-8-22,77.4,29.8,69.6,63.3,-36.5,-99.9,79,23,46,30.12,29.92,6,-598,0,0.00
2013-8-23,72.9,26.7,66.4,64.0,-39.6,-99.9,81,26,62,30.20,30.12,6,-623,0,0.00
2013-8-24,73.6,27.0,69.3,67.6,-38.0,-99.9,85,30,71,30.24,30.11,8,-622,0,0.00
2013-8-25,84.7,29.8,74.8,74.7,-35.6,-99.9,82,29,72,30.11,29.91,13,-622,0,0.00
2013-8-26,79.6,30.0,71.7,72.9,-33.1,-99.9,89,32,77,29.99,29.88,6,-607,0,0.00
2013-8-27,-200.0,0.0,200.0,-99.9,-99.9,-99.9,0,0,100,29.95,29.81,0,-999,0,0.00
2013-8-28,70.4,12.5,66.8,69.2,-69.3,-99.9,100,18,95,29.96,29.86,6,-816,0,0.00
2013-9-7,76.9,35.7,64.7,72.4,-15.8,-99.9,95,45,85,30.03,29.84,13,-495,0,0.15
2013-9-8,66.8,25.7,60.4,60.4,-37.6,-99.9,87,30,70,30.13,29.98,6,-603,0,0.00
2013-9-9,-200.0,0.0,200.0,-99.9,-99.9,-99.9,0,0,100,29.98,29.66,0,-999,0,0.00
2013-9-10,81.6,31.0,71.9,74.4,-31.9,-99.9,86,32,72,29.91,29.68,9,-601,0,0.00
2013-9-11,77.1,26.4,67.9,69.5,-42.7,-99.9,95,29,75,29.95,29.85,8,-636,0,0.00
2013-9-12,63.5,22.4,54.3,56.4,-42.3,-99.9,86,30,75,30.12,29.90,19,-619,0,0.00
2013-9-13,58.0,25.2,49.8,46.8,-33.7,-99.9,75,31,62,30.22,30.11,13,-539,0,0.00
2013-9-14,65.6,25.8,57.2,55.9,-36.2,-99.9,81,30,63,30.12,29.95,13,-579,0,0.00
2013-9-15,57.2,9.1,51.0,54.3,-74.8,-99.9,91,15,85,30.25,29.93,21,-830,0,0.00
2013-9-16,55.7,20.1,49.9,45.6,-45.9,-99.9,82,26,64,30.43,30.25,6,-623,0,0.00
2013-9-17,60.9,23.6,56.4,53.8,-39.5,-99.9,90,31,71,30.36,30.11,7,-602,0,0.00
2013-9-18,64.9,13.6,62.5,63.4,-65.3,-99.9,98,20,94,30.10,29.87,7,-785,0,0.03
2013-9-19,69.2,20.5,65.8,67.5,-49.3,-99.9,99,29,94,29.88,29.65,10,-693,0,0.00
2013-9-20,69.9,8.6,66.0,65.0,-79.5,-99.9,86,10,80,29.74,29.61,5,-874,0,0.00
2013-9-21,54.4,22.2,51.7,48.1,-39.4,-99.9,83,31,70,29.95,29.74,13,-579,0,0.00
2013-9-22,51.9,17.9,49.1,45.6,-49.1,-99.9,80,27,74,30.10,29.95,2,-645,0,0.00
2013-9-23,56.9,23.3,52.5,49.8,-37.7,-99.9,84,32,74,30.16,30.09,9,-579,0,0.00
2013-9-24,63.2,26.5,55.9,57.3,-32.0,-99.9,100,36,76,30.11,29.99,7,-560,0,0.00
2013-9-25,64.7,23.7,57.7,57.9,-40.1,-99.9,91,32,75,30.02,29.98,7,-616,0,0.00
2013-9-26,67.2,24.1,59.0,61.2,-41.8,-99.9,95,28,65,30.10,30.01,6,-627,0,0.00
2013-9-27,67.2,27.7,62.2,62.2,-32.0,-99.9,92,36,80,30.15,30.06,7,-575,0,0.00
2013-9-28,67.9,22.8,63.1,62.2,-44.1,-99.9,89,29,79,30.07,29.77,8,-650,0,0.00
2013-9-29,63.5,25.7,54.8,55.4,-34.3,-99.9,88,33,62,30.01,29.84,6,-568,0,0.00
2013-9-30,63.2,21.3,60.0,58.8,-45.9,-99.9,91,29,79,29.97,29.78,9,-654,0,0.00
2013-10-1,71.2,26.6,59.8,63.6,-34.0,-99.9,90,35,76,29.87,29.67,12,-584,0,0.00
2013-10-2,68.4,24.0,59.0,53.1,-43.9,-99.9,79,23,45,30.06,29.87,7,-623,0,0.00
2013-10-3,61.9,20.4,58.4,58.0,-46.6,-99.9,91,30,84,29.99,29.89,8,-657,0,0.00
2013-10-4,-200.0,0.0,200.0,-99.9,-99.9,-99.9,0,0,100,30.06,29.90,0,-999,0,0.00
2013-10-5,-200.0,0.0,200.0,-99.9,-99.9,-99.9,0,0,100,30.06,29.74,0,-999,0,0.00
2013-10-6,61.5,12.9,56.6,56.9,-67.8,-99.9,91,17,73,29.73,29.58,8,-781,0,0.00
2013-10-7,60.3,23.8,49.1,49.5,-37.6,-99.9,88,31,59,30.04,29.59,13,-572,0,0.00
2013-10-8,63.4,23.2,59.1,59.9,-40.6,-99.9,94,33,84,30.13,30.04,9,-622,0,0.00
2013-10-9,63.5,20.6,59.3,58.6,-47.9,-99.9,88,28,81,30.17,30.07,8,-666,0,0.00
2013-10-10,63.9,22.8,58.4,60.7,-41.3,-99.9,96,33,85,30.17,30.06,7,-630,0,0.00
2013-10-11,64.4,22.8,59.1,58.1,-43.1,-99.9,90,29,67,30.09,29.95,11,-633,0,0.00
2013-10-12,64.6,12.7,60.8,60.5,-67.8,-99.9,95,18,84,30.00,29.85,8,-797,0,0.00
2013-10-13,56.6,23.3,50.7,48.2,-36.8,-99.9,85,33,67,30.39,30.01,10,-566,0,0.00
2013-10-14,56.3,20.0,50.0,49.1,-47.1,-99.9,88,25,56,30.43,30.22,4,-631,0,0.00
2013-10-15,55.7,18.6,54.0,53.8,-48.1,-99.9,97,31,84,30.22,29.65,13,-657,0,0.16
2013-10-16,50.0,6.1,48.1,45.0,-81.9,-99.9,85,10,82,29.87,29.63,12,-873,0,0.00
2013-10-17,49.8,10.1,45.4,40.2,-70.7,-99.9,79,15,68,29.87,29.72,3,-789,0,0.00
2013-10-18,-200.0,0.0,200.0,-99.9,-99.9,-99.9,0,0,100,29.76,29.72,0,-999,0,0.00
2013-10-20,46.6,15.4,45.6,40.1,-53.7,-99.9,79,25,72,29.77,29.62,5,-665,0,0.00
2013-10-21,42.1,8.9,37.5,36.7,-70.7,-99.9,81,16,62,29.78,29.61,16,-772,0,0.00
2013-10-22,45.9,14.9,36.8,37.4,-51.8,-99.9,91,28,65,29.92,29.70,17,-639,0,0.01
2013-10-23,43.6,14.2,38.2,33.8,-54.4,-99.9,77,24,61,29.91,29.83,15,-648,0,0.00
2013-10-24,44.6,16.8,35.5,33.8,-46.2,-99.9,82,28,56,30.18,29.91,13,-586,0,0.00
2013-10-25,43.8,14.0,39.1,35.3,-56.8,-99.9,85,22,59,30.23,29.64,16,-662,0,0.00
2013-10-26,46.0,13.5,39.8,37.5,-58.0,-99.9,86,22,63,29.98,29.59,19,-682,0,0.00
2013-10-27,46.9,14.5,42.8,37.1,-56.5,-99.9,75,22,67,30.07,29.81,20,-677,0,0.00
2013-10-28,39.2,15.2,32.5,29.0,-47.2,-99.9,75,28,58,30.49,30.08,13,-580,0,0.00
2013-10-29,40.2,11.0,37.1,36.4,-61.5,-99.9,94,25,78,30.49,30.18,4,-714,0,0.04
2013-10-30,50.5,16.6,43.5,49.4,-49.7,-99.9,99,32,93,30.20,29.74,6,-658,0,0.00
2013-10-31,-200.0,0.0,200.0,-99.9,-99.9,-99.9,0,0,100,29.74,29.05,0,-999,0,0.00
2013-11-1,-200.0,0.0,200.0,-99.9,-99.9,-99.9,0,0,100,29.68,29.06,0,-999,0,0.00
2013-11-2,41.6,14.6,39.0,35.5,-51.0,-99.9,83,29,77,30.16,29.68,10,-634,0,0.00
2013-11-3,43.6,14.3,27.6,40.1,-52.4,-99.9,98,30,78,30.32,30.16,6,-652,0,0.02
2013-11-4,50.1,11.2,47.0,43.2,-67.4,-99.9,81,18,73,30.28,30.03,12,-768,0,0.00
2013-11-5,50.3,14.3,45.6,44.2,-57.6,-99.9,87,24,71,30.25,29.90,6,-700,0,0.00
2013-11-6,-200.0,0.0,200.0,-99.9,-99.9,-99.9,0,0,100,30.02,29.68,0,-999,0,0.00
2013-11-7,-200.0,0.0,200.0,-99.9,-99.9,-99.9,0,0,100,30.10,30.02,0,-999,0,0.00
2013-11-8,40.4,13.5,36.6,32.0,-55.6,-99.9,75,22,56,30.22,29.90,10,-650,0,0.00
2013-11-9,-200.0,0.0,200.0,-99.9,-99.9,-99.9,0,0,100,29.89,29.60,0,-999,0,0.00
2013-11-10,42.4,14.1,37.8,32.8,-53.6,-99.9,82,25,64,30.20,29.84,18,-642,0,0.00
2013-11-11,30.5,6.4,27.1,18.1,-74.1,-99.9,66,13,54,30.49,29.96,17,-774,0,0.00
2013-11-12,30.2,9.4,24.5,17.8,-60.4,-99.9,71,21,53,30.63,30.44,14,-656,0,0.00
2013-11-13,41.7,12.5,29.5,28.5,-56.5,-99.9,78,23,55,30.45,29.83,21,-651,0,0.00
2013-11-14,41.6,10.4,39.2,34.1,-66.1,-99.9,81,18,66,29.88,29.77,19,-740,0,0.00
2013-11-15,46.0,13.5,41.4,40.8,-57.4,-99.9,90,25,80,29.88,29.79,8,-692,0,0.00
2013-11-16,-200.0,0.0,200.0,-99.9,-99.9,-99.9,0,0,100,29.88,29.40,0,-999,0,0.00
2013-11-17,-200.0,0.0,200.0,-99.9,-99.9,-99.9,0,0,100,29.42,29.09,0,-999,0,0.00
2013-11-18,34.4,11.2,32.8,28.0,-58.0,-99.9,79,24,66,30.20,29.36,24,-651,0,0.00
2013-11-19,33.5,11.5,27.9,25.1,-54.5,-99.9,78,27,69,30.38,30.20,0,-631,0,0.00
2013-11-20,-200.0,0.0,200.0,-99.9,-99.9,-99.9,0,0,100,30.27,30.10,0,-999,0,0.00
2013-11-21,40.1,7.2,39.5,38.0,-75.1,-99.9,93,16,90,30.26,30.10,5,-818,0,0.00
2013-11-22,31.9,8.3,29.6,25.0,-66.4,-99.9,82,20,69,30.42,30.26,15,-726,0,0.00
2013-11-23,18.9,5.9,15.4,8.0,-62.9,-99.9,70,22,55,30.66,30.34,20,-646,0,0.00
2013-11-24,21.2,6.1,14.7,11.5,-63.2,-99.9,73,23,61,30.63,30.09,11,-661,0,0.00
2013-11-25,34.0,3.5,32.5,27.9,-86.6,-99.9,80,8,77,30.08,29.81,19,-893,0,0.00
2013-11-26,28.3,3.5,22.5,20.6,-83.7,-99.9,90,10,58,30.11,29.86,17,-859,0,0.00
2013-11-27,25.7,7.5,22.2,16.8,-63.8,-99.9,78,22,61,30.22,30.07,18,-682,0,0.00
2013-11-28,24.3,6.1,22.9,22.3,-68.6,-99.9,95,24,89,30.47,30.15,12,-741,0,0.00
2013-11-29,27.5,7.8,9.6,24.6,-62.1,-99.9,94,27,77,30.62,30.35,4,-686,0,0.10
2013-11-30,-200.0,0.0,200.0,-99.9,-99.9,-99.9,0,0,100,30.35,29.99,0,-999,0,0.00
2013-12-1,34.9,8.1,33.4,31.0,-69.3,-99.9,86,20,80,30.13,30.00,8,-762,0,0.01
2013-12-2,36.5,8.3,33.6,31.1,-69.4,-99.9,90,19,68,30.00,29.84,3,-763,0,0.01
2013-12-3,-200.0,0.0,200.0,-99.9,-99.9,-99.9,0,0,100,29.90,29.82,0,-999,0,0.00
2013-12-4,-200.0,0.0,200.0,-99.9,-99.9,-99.9,0,0,100,29.85,29.31,0,-999,0,0.00
2013-12-5,25.7,7.1,19.6,19.5,-62.9,-99.9,77,23,68,30.17,29.34,21,-670,0,0.00
2013-12-6,16.6,4.7,7.8,9.8,-61.9,-99.9,88,27,64,30.47,30.16,11,-642,0,0.00
2013-12-7,13.7,4.0,7.4,6.3,-63.0,-99.9,87,26,62,30.63,30.45,16,-642,0,0.00
2013-12-8,14.5,2.8,9.5,12.1,-74.2,-99.9,90,21,85,30.60,30.01,1,-763,0,0.00
2013-12-9,19.0,4.9,14.8,17.3,-68.6,-99.9,93,23,71,30.09,29.78,19,-718,0,0.00
2013-12-10,13.4,2.5,6.0,5.7,-70.9,-99.9,88,22,69,30.17,29.78,14,-716,0,0.00
2013-12-11,8.5,2.8,5.6,2.5,-60.1,-99.9,85,29,64,30.44,30.16,17,-598,0,0.00
2013-12-12,13.9,3.0,5.8,8.0,-67.8,-99.9,89,25,73,30.40,30.08,14,-690,0,0.00
2013-12-13,14.3,3.8,12.2,7.0,-69.0,-99.9,77,21,67,30.40,30.12,13,-705,0,0.00
2013-12-14,21.4,5.1,19.7,19.7,-70.9,-99.9,93,22,90,30.39,29.87,8,-754,0,0.00
2013-12-15,17.7,5.0,11.4,9.9,-64.5,-99.9,85,24,67,30.07,29.75,16,-668,0,0.00
2013-12-16,20.6,5.5,15.8,19.4,-66.6,-99.9,100,24,72,30.13,29.91,8,-706,0,0.00
2013-12-17,23.6,5.6,18.2,19.1,-68.0,-99.9,87,23,82,29.98,29.78,12,-725,0,0.00
2013-12-18,25.8,6.2,15.2,22.2,-62.3,-99.9,86,26,74,30.05,29.70,11,-664,0,0.00
2013-12-19,23.5,3.8,22.0,19.4,-80.2,-99.9,85,14,81,30.09,29.74,17,-830,0,0.00
2013-12-20,22.1,4.1,20.1,20.6,-76.6,-99.9,94,18,93,30.05,29.80,11,-802,0,0.00
2013-12-21,26.5,6.7,22.7,24.0,-66.7,-99.9,93,25,89,29.98,29.81,7,-727,0,0.00
2013-12-22,20.7,3.9,18.6,19.4,-76.3,-99.9,100,19,89,30.11,29.80,15,-796,0,0.00
2013-12-23,19.4,5.3,18.6,15.8,-68.1,-99.9,87,23,77,30.39,30.10,10,-720,0,0.00
2013-12-24,16.1,4.7,11.5,10.1,-65.0,-99.9,87,25,75,30.51,30.32,6,-679,0,0.00
2013-12-25,15.5,3.8,13.2,12.1,-69.9,-99.9,87,23,85,30.32,30.00,16,-725,0,0.00
2013-12-26,15.3,4.8,11.7,10.0,-62.7,-99.9,87,27,76,30.25,29.98,9,-657,0,0.00
2013-12-27,29.4,6.4,16.1,26.3,-67.8,-99.9,93,23,83,30.26,29.82,11,-732,0,0.00
2013-12-28,34.3,9.0,27.4,30.8,-63.0,-99.9,93,26,87,29.98,29.71,9,-712,0,0.00
2013-12-29,15.2,3.2,11.3,10.4,-74.7,-99.9,81,17,70,30.19,29.72,20,-759,0,0.00
2013-12-30,3.0,0.3,-1.9,-1.1,-67.0,-99.9,84,28,79,30.33,30.11,9,-657,0,0.00
2013-12-31,5.5,0.7,-2.9,-2.7,-67.9,-99.9,79,24,61,30.43,30.06,13,-656,0,0.00
2014-1-1,8.7,2.0,2.8,3.5,-69.7,-99.9,91,23,72,30.52,30.34,11,-698,0,0.00
2014-1-2,11.0,2.7,4.7,7.1,-67.3,-99.9,88,26,77,30.44,30.30,13,-684,0,0.00